Al Hamla — V7MX9 — position and weather

sailwx.info

Track history (hours):
 
Tides and Currents Weather Stations Pressure Air Temp Water Temp Dewpoint Dewpoint Depression Visibility Wind Speed Wind Dir Waves Ship Positions

Al Hamla

Last reported at 2014-Sep-15 06:13 UTC. Time now 2014-Sep-19 09:55 UTC.
Position N 29°30' E 122°41'.

Length 340 m; draft 9.6 m.

Type: Tanker. MMSI: 538002922.

Date/timePositionNaut miles runAvg speedWind from/ knotsBaromVisibWave heightAir tempDewpointWater temp
2014-Sep-15 06:13N 29°30' E 122°41'1014.6
2014-Sep-15 05:31N 29°38' E 122°34'1010.0
2014-Sep-15 04:33N 29°43' E 122°24'10 9.8
2014-Sep-15 03:33N 29°48' E 122°15'10 9.8
2014-Sep-15 02:33N 29°55' E 122°07'2 0.6
2014-Sep-14 23:15N 29°54' E 122°05'0 0.0
2014-Sep-14 18:12N 29°54' E 122°05'0 0.0
2014-Sep-14 15:32N 29°54' E 122°05'0 0.0
2014-Sep-14 13:09N 29°54' E 122°05'0 0.0
2014-Sep-14 12:22N 29°54' E 122°05'0 0.0
2014-Sep-14 11:22N 29°54' E 122°05'0 0.0
2014-Sep-14 10:11N 29°54' E 122°05'0 0.0
2014-Sep-14 09:12N 29°54' E 122°05'0 0.0
2014-Sep-14 02:05N 29°54' E 122°05'0 0.0
2014-Sep-13 20:08N 29°54' E 122°05'0 0.0
2014-Sep-13 19:33N 29°54' E 122°05'0 0.0
2014-Sep-13 16:11N 29°54' E 122°05'0 0.0
2014-Sep-13 15:29N 29°54' E 122°05'0 0.0
2014-Sep-13 14:12N 29°54' E 122°05'0 0.0
2014-Sep-13 13:31N 29°54' E 122°05'0 0.0
2014-Sep-13 10:21N 29°54' E 122°05'0 0.0
2014-Sep-13 09:22N 29°54' E 122°05'0 0.0
2014-Sep-13 08:22N 29°54' E 122°05'0 0.0
2014-Sep-13 06:33N 29°54' E 122°05'5 5.4
2014-Sep-13 05:33N 29°53' E 122°11'1111.1
2014-Sep-13 04:33N 29°44' E 122°20'10 9.8
2014-Sep-13 03:32N 29°41' E 122°31'5 5.2
2014-Sep-13 02:33N 29°39' E 122°36'5 4.6
2014-Sep-13 01:27N 29°34' E 122°37'30 3.4
2014-Sep-12 16:26N 29°19' E 123°07'  
2014-Sep-07 03:32N 01°16' E 104°14'1313.5
2014-Sep-07 02:33N 01°14' E 104°01'7 7.1
2014-Sep-07 01:33N 01°13' E 103°54'  
Track history (hours):
 
Tides and Currents Weather Stations Pressure Air Temp Water Temp Dewpoint Dewpoint Depression Visibility Wind Speed Wind Dir Waves Ship Positions

Al Hamla

Last reported at 2014-Sep-15 06:13 UTC. Time now 2014-Sep-19 09:55 UTC.
Position N 29°30' E 122°41'.

Length 340 m; draft 9.6 m.

Type: Tanker. MMSI: 538002922.

Date/timePositionNaut miles runAvg speedWind from/ knotsBaromVisibWave heightAir tempDewpointWater temp
2014-Sep-15 06:13N 29°30' E 122°41'1014.6
2014-Sep-15 05:31N 29°38' E 122°34'1010.0
2014-Sep-15 04:33N 29°43' E 122°24'10 9.8
2014-Sep-15 03:33N 29°48' E 122°15'10 9.8
2014-Sep-15 02:33N 29°55' E 122°07'2 0.6
2014-Sep-14 23:15N 29°54' E 122°05'0 0.0
2014-Sep-14 18:12N 29°54' E 122°05'0 0.0
2014-Sep-14 15:32N 29°54' E 122°05'0 0.0
2014-Sep-14 13:09N 29°54' E 122°05'0 0.0
2014-Sep-14 12:22N 29°54' E 122°05'0 0.0
2014-Sep-14 11:22N 29°54' E 122°05'0 0.0
2014-Sep-14 10:11N 29°54' E 122°05'0 0.0
2014-Sep-14 09:12N 29°54' E 122°05'0 0.0
2014-Sep-14 02:05N 29°54' E 122°05'0 0.0
2014-Sep-13 20:08N 29°54' E 122°05'0 0.0
2014-Sep-13 19:33N 29°54' E 122°05'0 0.0
2014-Sep-13 16:11N 29°54' E 122°05'0 0.0
2014-Sep-13 15:29N 29°54' E 122°05'0 0.0
2014-Sep-13 14:12N 29°54' E 122°05'0 0.0
2014-Sep-13 13:31N 29°54' E 122°05'0 0.0
2014-Sep-13 10:21N 29°54' E 122°05'0 0.0
2014-Sep-13 09:22N 29°54' E 122°05'0 0.0
2014-Sep-13 08:22N 29°54' E 122°05'0 0.0
2014-Sep-13 06:33N 29°54' E 122°05'5 5.4
2014-Sep-13 05:33N 29°53' E 122°11'1111.1
2014-Sep-13 04:33N 29°44' E 122°20'10 9.8
2014-Sep-13 03:32N 29°41' E 122°31'5 5.2
2014-Sep-13 02:33N 29°39' E 122°36'5 4.6
2014-Sep-13 01:27N 29°34' E 122°37'30 3.4
2014-Sep-12 16:26N 29°19' E 123°07'  
2014-Sep-07 03:32N 01°16' E 104°14'1313.5
2014-Sep-07 02:33N 01°14' E 104°01'7 7.1
2014-Sep-07 01:33N 01°13' E 103°54'  

Dump ship's entire track history